FENGYUN 3D (43010 NORAD) Tracking and Keplerian Element Data

This shows tracking and keplerian element data for the satellite.

Feedback or suggestion? Click here.




ElementValue
Catalog43010
NameFENGYUN 3D
Epoch Orbit20041
Epoch Day270.11740918
Epoch Year2021
RAAN211.3526
Inclination98.7947
Eccentricity0.0001567
Argument of Perigee134.3814
Mean Anonmoly225.7494
Mean Motion14.1977749
Decay Rate-1.4E-07
L11 43010U 17072A 21270.11740918 -.00000014 00000-0 14378-4 0 9991
L22 43010 98.7947 211.3526 0001567 134.3814 225.7494 14.19777490200416

Live tracking and technical data element details for FENGYUN 3D (NORAD 43010). FENGYUN 3D can be tracked NOW for your location showing map with azimuth and elevation plus other details from your city location.

Track the satellite on the map from your city or location and see movement details for azimuth, elevation, latitude, longitude, range, height, and movement on the map or in text.







IsCatalogInMostPopularTable: catalog: 43010, numindb: 607
Update: records affected: 1



GetName: 43010 FENGYUN 3D

Hit Count: updated at: Tue, 28 Sep 2021 16:14:03 GMT